Torna al catalogo

MOS 1A

MOMO 1

AttivoScienzaSSO
NORAD 17527·PAYLOAD·🇯🇵 Japan

Lanciato Feb 19, 1987 da Tanegashima Space Center

Loading…

Prossimi Passaggi (prossime 24 ore)

TLE

AggiornatoSource: Space-Track

Epoca: Sep 14, 2026, 14:47 UTC

1 17527U 87018A   26257.61597545 -.00000098  00000-0 -35107-4 0  9999
2 17527  98.8320 304.5068 0007603 304.6922 218.5524 14.03222890 22598

Traccia MOS 1A in tempo reale con AllMySat

Download on the App Store